GW0115 Weather Reports


Display with metric or nautical units.
time (UTC)temp
F
wind
direction
speed
MPH
gust
MPH
rain 1hr
in
rain 24hr
in
rain mn
in
humidity
%
barometer
mb
20260505010103 59 0 0.0 0.0 0.00 0.00 0.00 58 1005.3
20260505004555 59 0 0.0 0.0 0.00 0.00 0.00 58 1005.0
20260505003104 59 0 0.0 0.0 0.00 0.00 0.00 57 1005.0
20260505001557 60 0 0.0 0.0 0.00 0.00 0.00 58 1004.8
20260504234555 61 0 0.0 0.0 0.00 0.00 0.00 57 1004.6
20260504233055 62 0 0.0 0.0 0.00 0.00 0.00 55 1004.3
20260504231600 63 0 0.0 0.0 0.00 0.00 0.00 52 1004.1
20260504230058 67 0 0.0 9.0 0.00 0.00 0.00 45 1003.9
20260504224559 66 0 0.0 1.0 0.00 0.00 0.00 44 1003.7
20260504223051 67 0 0.0 6.0 0.00 0.00 0.00 42 1003.7
20260504221551 67 0 0.0 8.0 0.00 0.00 0.00 40 1003.7
20260504220115 67 0 0.0 7.0 0.00 0.00 0.00 40 1003.7
20260504214554 68 0 0.0 7.0 0.00 0.00 0.00 40 1003.7
20260504213056 67 0 0.0 10.0 0.00 0.00 0.00 45 1003.7
20260504211555 68 0 0.0 5.0 0.00 0.00 0.00 41 1003.7
20260504210051 68 255 3.0 11.0 0.00 0.00 0.00 42 1003.7
20260504204551 67 0 0.0 8.0 0.00 0.00 0.00 42 1003.8
20260504203050 66 0 1.0 10.0 0.00 0.00 0.00 43 1003.8
20260504201554 67 0 1.0 10.0 0.00 0.00 0.00 42 1004.0
20260504200054 66 0 2.0 9.0 0.00 0.00 0.00 43 1004.1
20260504194549 67 0 0.0 10.0 0.00 0.00 0.00 43 1004.3
20260504193055 67 0 2.0 10.0 0.00 0.00 0.00 43 1004.3
20260504191557 66 0 1.0 10.0 0.00 0.00 0.00 44 1004.5
20260504190107 65 0 0.0 11.0 0.00 0.00 0.00 45 1004.8
20260504184611 65 0 0.0 13.0 0.00 0.00 0.00 47 1004.9
20260504183053 63 0 0.0 8.0 0.00 0.00 0.00 48 1004.9
20260504181553 64 0 0.0 7.0 0.00 0.00 0.00 47 1005.0
20260504180054 64 0 0.0 7.0 0.00 0.00 0.00 45 1005.2
20260504174552 64 0 0.0 6.0 0.00 0.00 0.00 46 1005.2
20260504173056 62 0 0.0 5.0 0.00 0.00 0.00 48 1005.3
20260504171552 62 0 0.0 3.0 0.00 0.00 0.00 50 1005.4
20260504060108 47 0 0.0 5.0 0.00 0.00 0.00 73 1008.7
20260504044559 48 0 3.0 14.0 0.00 0.00 0.00 67 1008.8
20260504043055 48 258 1.0 8.0 0.00 0.00 0.00 63 1008.9
20260504041551 48 0 0.0 6.0 0.00 0.00 0.00 59 1008.8
20260504040105 47 0 0.0 1.0 0.00 0.00 0.00 57 1008.9
20260504034600 47 0 0.0 6.0 0.00 0.00 0.00 56 1009.0
20260504033126 43 0 0.0 0.0 0.00 0.00 0.00 66 1008.9
20260504031558 43 0 0.0 0.0 0.00 0.00 0.00 63 1008.9
20260504030056 42 0 0.0 0.0 0.00 0.00 0.00 63 1009.0
20260504024557 41 0 0.0 0.0 0.00 0.00 0.00 63 1008.9
20260504023104 41 0 0.0 0.0 0.00 0.00 0.00 63 1008.8
20260504021554 41 0 0.0 0.0 0.00 0.00 0.00 59 1009.0
20260504020057 41 0 0.0 0.0 0.00 0.00 0.00 61 1009.0
20260504014600 41 0 0.0 0.0 0.00 0.00 0.00 59 1009.1
20260504013109 42 0 0.0 0.0 0.00 0.00 0.00 58 1009.1
20260504011556 43 0 0.0 0.0 0.00 0.00 0.00 54 1008.9